White Pass
White Pass Ski Area
Latest observation 09/01 16:00 PDT
| Time (PDT) | Temp °F 5800' | Temp °F 4500' | RH % 5800' | RH % 4500' | Min mph 5970' | Spd mph 5970' | Gust mph 5970' | Dir ° 5970' | Pcp1 in 5800' | PcpSum in 5800' | 24Sno in 5800' | SnoHt in 5800' |
|---|---|---|---|---|---|---|---|---|---|---|---|---|
| 09/01 16:00 | 57 | 62 | 65 | 57 | 13 | 21 | 30 | 261 | 0.00 | 0.00 | 0.1 | 5.1 |
| 09/01 15:00 | 59 | 63 | 54 | 48 | 11 | 18 | 24 | 264 | 0.00 | 0.00 | -0.0 | 5.2 |
| 09/01 14:00 | 58 | 62 | 53 | 42 | 12 | 19 | 26 | 262 | 0.00 | 0.00 | -0.1 | 5.2 |
| 09/01 13:00 | 58 | 63 | 59 | 54 | 12 | 17 | 23 | 262 | 0.00 | 0.00 | -0.0 | 5.3 |
| 09/01 12:00 | 57 | 61 | 62 | 60 | 11 | 16 | 23 | 261 | 0.00 | 0.00 | 0.0 | 5.4 |
| 09/01 11:00 | 57 | 57 | 52 | 72 | 6 | 9 | 16 | 261 | 0.00 | 0.00 | 0.0 | 5.9 |
| 09/01 10:00 | 54 | 52 | 70 | 83 | 4 | 6 | 8 | 256 | 0.00 | 0.00 | 0.2 | 6.5 |
| 09/01 09:00 | 52 | 51 | 75 | 84 | 5 | 10 | 14 | 255 | 0.00 | 0.00 | 0.2 | 6.5 |
| 09/01 08:00 | 51 | 49 | 77 | 89 | 8 | 11 | 16 | 255 | 0.00 | 0.00 | 0.1 | 6.8 |
| 09/01 07:00 | 50 | 48 | 76 | 84 | 6 | 10 | 12 | 256 | 0.00 | 0.00 | 0.1 | 6.7 |
| 09/01 06:00 | 51 | 49 | 65 | 73 | 6 | 9 | 11 | 255 | 0.00 | 0.00 | 0.1 | 6.7 |
| 09/01 05:00 | 53 | 50 | 55 | 72 | 3 | 7 | 11 | 265 | 0.00 | 0.00 | -0.1 | 7.1 |
| 09/01 04:00 | 53 | 49 | 52 | 71 | 6 | 7 | 11 | 253 | 0.00 | 0.00 | 0.1 | 6.7 |
| 09/01 03:00 | 54 | 49 | 50 | 71 | 6 | 10 | 15 | 255 | 0.00 | 0.00 | 0.1 | 6.8 |
| 09/01 02:00 | 54 | 49 | 46 | 71 | 0 | 4 | 9 | 106 | 0.00 | 0.00 | 0.0 | 6.8 |
| 09/01 01:00 | 51 | 50 | 53 | 69 | 3 | 8 | 11 | 90 | 0.00 | 0.00 | 0.1 | 6.8 |
| 09/01 00:00 | 52 | 51 | 51 | 64 | 3 | 5 | 8 | 91 | 0.00 | 0.00 | 0.1 | 6.8 |
| 08/31 23:00 | 52 | 52 | 52 | 65 | 6 | 9 | 13 | 90 | 0.00 | 0.00 | 0.1 | 6.9 |
| 08/31 22:00 | 53 | 54 | 51 | 64 | 7 | 10 | 13 | 89 | 0.00 | 0.00 | 0.2 | 6.8 |
| 08/31 21:00 | 55 | 56 | 48 | 59 | 4 | 6 | 12 | 96 | 0.00 | 0.00 | 0.1 | 6.7 |
| 08/31 20:00 | 55 | 60 | 47 | 49 | 4 | 7 | 12 | 88 | 0.00 | 0.00 | 0.1 | 6.5 |
| 08/31 19:00 | 58 | 66 | 45 | 36 | 8 | 13 | 19 | 83 | 0.00 | 0.00 | 0.1 | 5.9 |
| 08/31 18:00 | 61 | 70 | 40 | 31 | 8 | 13 | 19 | 84 | 0.00 | 0.00 | 0.0 | 6.1 |
| 08/31 17:00 | 62 | 69 | 39 | 31 | 7 | 12 | 19 | 77 | 0.00 | 0.00 | 0.0 | 5.3 |

